Erie, CO

3:00 PM MDT on August 19, 2017 (GMT -0600)
Erie Municipal Airport

Weather History for KEIK - February, 2014

Change the Weather History Date:

Tuesday, February 25, 2014

  Actual Average (KBJC) Record (KBJC)
Temperature  
Mean Temperature 16 °F -  
Max Temperature 27 °F 42 °F 75 °F (1986)
Min Temperature 3 °F 23 °F 3 °F (2002)
Degree Days  
Heating Degree Days 50    
Moisture  
Dew Point 12 °F    
Average Humidity 75    
Maximum Humidity 92    
Minimum Humidity 57    
Precipitation  
Precipitation 0.00 in - - ()
Sea Level Pressure  
Sea Level Pressure 30.14 in    
Wind  
Wind Speed 6 mph (NE)    
Max Wind Speed 16 mph    
Max Gust Speed 21 mph    
Visibility 9 miles    
Events Snow    
Averages and records for this station are not official NWS values.
T = Trace of Precipitation, MM = Missing Value Source: NWS Daily Summary

Daily Weather History Graph

Daily Weather History Graph

Search for Another Location

Airport or City:

Trip Planner

Search our weather history database for the weather conditions in past years. The results will help you decide how hot, cold, wet, or windy it might be!

Date:

Astronomy

Feb. 25, 2014 Rise Set
Actual Time 6:39 AM MST 5:47 PM MST
Civil Twilight 6:12 AM MST 6:15 PM MST
Nautical Twilight 5:40 AM MST 6:46 PM MST
Astronomical Twilight 5:09 AM MST 7:17 PM MST
Moon 3:36 AM MST (2/25) 1:56 PM MST (2/25)
Length of Visible Light 12h 02m
Length of Day
11h 08m
Waning Crescent, 17% of the Moon is Illuminated
Feb 25
Waning Crescent
Mar 1
New
Mar 8
First Quarter
Mar 16
Full
Mar 23
Last Quarter

Hourly Weather History & Observations

Time (MST) Temp. Windchill Dew Point Humidity Pressure Visibility Wind Dir Wind Speed Gust Speed Precip Events Conditions
12:16 AM 20.3 °F 9.0 °F 9.3 °F 63% 30.17 in 10.0 mi SE 10.4 mph - N/A   Overcast
12:36 AM 19.9 °F 12.1 °F 9.3 °F 63% 30.15 in 10.0 mi East 5.8 mph - N/A   Overcast
12:56 AM 19.9 °F 11.1 °F 9.7 °F 64% 30.14 in 10.0 mi East 6.9 mph - N/A   Overcast
1:16 AM 19.8 °F 11.9 °F 10.4 °F 67% 30.13 in 10.0 mi East 5.8 mph - N/A   Overcast
1:36 AM 19.4 °F 12.8 °F 10.6 °F 69% 30.12 in 10.0 mi East 4.6 mph - N/A   Overcast
1:56 AM 19.4 °F 12.8 °F 11.3 °F 71% 30.11 in 10.0 mi NE 4.6 mph - N/A   Overcast
2:16 AM 19.4 °F 14.3 °F 12.2 °F 74% 30.10 in 10.0 mi NE 3.5 mph - N/A   Overcast
2:36 AM 19.4 °F - 12.4 °F 74% 30.08 in 10.0 mi Calm Calm - N/A   Overcast
2:56 AM 19.4 °F - 12.6 °F 75% 30.07 in 10.0 mi Calm Calm - N/A   Overcast
3:16 AM 19.4 °F 14.3 °F 12.7 °F 75% 30.05 in 10.0 mi ENE 3.5 mph - N/A   Overcast
3:36 AM 19.4 °F - 13.1 °F 76% 30.03 in 10.0 mi Calm Calm - N/A   Overcast
3:56 AM 19.4 °F - 13.5 °F 78% 30.02 in 10.0 mi Calm Calm - N/A   Overcast
4:16 AM 19.2 °F - 13.5 °F 78% 30.01 in 10.0 mi Calm Calm - N/A   Overcast
4:36 AM 19.4 °F - 13.6 °F 78% 30.00 in 10.0 mi Calm Calm - N/A   Overcast
4:56 AM 19.4 °F - 13.8 °F 79% 29.99 in 10.0 mi Calm Calm - N/A   Overcast
5:16 AM 19.4 °F 14.3 °F 14.0 °F 80% 29.98 in 10.0 mi North 3.5 mph - N/A   Overcast
5:36 AM 19.4 °F 14.3 °F 14.0 °F 80% 29.99 in 10.0 mi NW 3.5 mph - N/A   Overcast
5:56 AM 19.4 °F - 14.0 °F 80% 29.96 in 10.0 mi Calm Calm - N/A   Overcast
6:16 AM 19.4 °F - 13.8 °F 79% 29.98 in 10.0 mi Calm Calm - N/A   Overcast
6:36 AM 19.0 °F - 13.8 °F 80% 29.96 in 10.0 mi Calm Calm - N/A   Mostly Cloudy
6:56 AM 18.9 °F - 14.4 °F 83% 29.96 in 10.0 mi Calm Calm - N/A   Mostly Cloudy
7:16 AM 19.4 °F - 15.3 °F 84% 29.94 in 10.0 mi Calm Calm - N/A   Scattered Clouds
7:36 AM 20.5 °F - 14.9 °F 79% 29.94 in 10.0 mi Calm Calm - N/A   Clear
7:56 AM 21.6 °F - 14.9 °F 76% 29.95 in 10.0 mi Calm Calm - N/A   Clear
8:16 AM 23.2 °F 18.7 °F 15.6 °F 73% 29.94 in 10.0 mi East 3.5 mph - N/A   Clear
8:36 AM 24.1 °F 17.0 °F 15.8 °F 71% 29.96 in 10.0 mi NE 5.8 mph - N/A   Clear
8:56 AM 25.0 °F 18.1 °F 16.7 °F 71% 29.97 in 10.0 mi North 5.8 mph - N/A   Clear
9:16 AM 26.1 °F 17.6 °F 17.1 °F 69% 29.99 in 10.0 mi North 8.1 mph - N/A   Clear
9:36 AM 27.0 °F 15.2 °F 17.2 °F 67% 30.00 in 10.0 mi North 15.0 mph - N/A   Clear
9:56 AM 26.8 °F 15.4 °F 18.0 °F 69% 30.03 in 10.0 mi NE 13.8 mph 18.4 mph N/A   Scattered Clouds
10:16 AM 24.6 °F 12.2 °F 17.4 °F 74% 30.05 in 10.0 mi NNE 15.0 mph - N/A   Overcast
10:36 AM 24.3 °F 11.7 °F 17.4 °F 75% 30.08 in 10.0 mi North 15.0 mph - N/A   Overcast
10:56 AM 23.4 °F 11.1 °F 17.6 °F 79% 30.09 in 7.0 mi NNE 13.8 mph - N/A   Overcast
11:16 AM 23.9 °F 12.3 °F 18.1 °F 79% 30.11 in 7.0 mi North 12.7 mph 20.7 mph N/A   Overcast
11:36 AM 23.9 °F 12.3 °F 18.3 °F 79% 30.12 in 7.0 mi North 12.7 mph 19.6 mph N/A   Overcast
11:56 AM 23.9 °F 10.8 °F 17.4 °F 76% 30.14 in 10.0 mi NNE 16.1 mph 20.7 mph N/A   Overcast
12:16 PM 21.2 °F 7.8 °F 13.6 °F 73% 30.15 in 10.0 mi NE 15.0 mph 20.7 mph N/A   Overcast
12:36 PM 21.6 °F 8.2 °F 12.0 °F 67% 30.15 in 10.0 mi NNE 15.0 mph - N/A   Overcast
12:56 PM 21.2 °F 8.3 °F 12.0 °F 68% 30.16 in 10.0 mi NE 13.8 mph - N/A   Overcast
1:16 PM 21.6 °F 10.6 °F 10.9 °F 64% 30.15 in 10.0 mi NNE 10.4 mph 17.3 mph N/A   Overcast
1:36 PM 21.2 °F 10.1 °F 10.0 °F 62% 30.16 in 10.0 mi NNE 10.4 mph 18.4 mph N/A   Overcast
1:56 PM 21.6 °F 9.9 °F 10.0 °F 61% 30.16 in 10.0 mi NE 11.5 mph - N/A   Overcast
2:16 PM 22.3 °F 8.7 °F 9.0 °F 57% 30.16 in 10.0 mi NNE 16.1 mph - N/A   Overcast
2:36 PM 21.9 °F 9.8 °F 9.0 °F 58% 30.17 in 10.0 mi NNE 12.7 mph - N/A   Overcast
2:56 PM 21.9 °F 10.4 °F 9.0 °F 58% 30.18 in 10.0 mi NNE 11.5 mph 17.3 mph N/A   Overcast
3:16 PM 21.9 °F 10.4 °F 8.8 °F 57% 30.18 in 10.0 mi NNE 11.5 mph 17.3 mph N/A   Overcast
3:36 PM 20.8 °F 7.3 °F 8.1 °F 58% 30.19 in 10.0 mi NNE 15.0 mph - N/A   Overcast
3:56 PM 20.3 °F 7.2 °F 7.7 °F 58% 30.20 in 10.0 mi NNE 13.8 mph - N/A   Overcast
4:16 PM 19.4 °F 6.6 °F 8.1 °F 61% 30.21 in 10.0 mi NNE 12.7 mph - N/A   Overcast
4:36 PM 18.9 °F 5.3 °F 7.9 °F 62% 30.23 in 10.0 mi NNE 13.8 mph 18.4 mph N/A   Overcast
4:56 PM 18.3 °F 5.9 °F 8.6 °F 66% 30.24 in 10.0 mi NE 11.5 mph - N/A   Overcast
5:16 PM 18.0 °F 6.1 °F 8.6 °F 67% 30.25 in 10.0 mi NNE 10.4 mph - N/A   Overcast
5:36 PM 17.6 °F 7.3 °F 9.1 °F 69% 30.26 in 10.0 mi NNE 8.1 mph - N/A   Overcast
5:56 PM 17.4 °F 7.1 °F 10.0 °F 73% 30.28 in 7.0 mi NE 8.1 mph - N/A Snow Light Snow
6:16 PM 17.1 °F 5.8 °F 11.1 °F 77% 30.30 in 3.0 mi NE 9.2 mph - N/A Snow Light Snow
6:36 PM 16.3 °F 6.7 °F 12.4 °F 84% 30.32 in 3.0 mi NNE 6.9 mph - N/A Snow Light Snow
6:56 PM 15.8 °F 6.1 °F 13.1 °F 89% 30.33 in 1.8 mi NE 6.9 mph - N/A Snow Light Snow
7:16 PM 15.6 °F 8.3 °F 13.1 °F 90% 30.34 in 1.2 mi NE 4.6 mph - N/A Snow Snow
7:36 PM 15.3 °F - 13.1 °F 91% 30.33 in 1.2 mi Calm Calm - N/A Snow Light Snow
7:56 PM 14.9 °F 7.5 °F 12.7 °F 91% 30.33 in 2.5 mi NNE 4.6 mph - N/A Snow Light Snow
8:16 PM 14.4 °F - 12.0 °F 90% 30.31 in 1.2 mi Calm Calm - N/A Snow Light Snow
8:36 PM 14.7 °F - 12.2 °F 90% 30.30 in 3.0 mi Calm Calm - N/A Snow Light Snow
8:56 PM 13.8 °F 6.2 °F 11.3 °F 90% 30.30 in 5.0 mi ESE 4.6 mph - N/A Snow Light Snow
9:16 PM 12.7 °F 5.0 °F 10.4 °F 90% 30.29 in 10.0 mi SE 4.6 mph - N/A   Mostly Cloudy
9:36 PM 11.7 °F 2.3 °F 9.1 °F 90% 30.28 in 7.0 mi ESE 5.8 mph - N/A Snow Light Snow
9:56 PM 11.1 °F 1.7 °F 9.1 °F 92% 30.27 in 10.0 mi SE 5.8 mph - N/A   Clear
10:16 PM 11.1 °F 3.1 °F 8.6 °F 90% 30.27 in 10.0 mi East 4.6 mph - N/A   Clear
10:36 PM 7.9 °F - 5.7 °F 91% 30.27 in 10.0 mi Calm Calm - N/A   Clear
10:56 PM 5.9 °F - 3.9 °F 92% 30.27 in 10.0 mi Calm Calm - N/A   Clear
11:16 PM 6.4 °F - 4.3 °F 91% 30.26 in 10.0 mi Calm Calm - N/A   Clear
11:36 PM 4.8 °F - 2.3 °F 89% 30.25 in 10.0 mi Calm Calm - N/A   Clear
11:56 PM 3.7 °F - 0.7 °F 87% 30.25 in 10.0 mi Calm Calm - N/A   Clear